Arcata, CA

1:12 PM PDT on May 23, 2017 (GMT -0700)
Arcata

Weather History for KACV - August, 2014

Change the Weather History Date:

Monday, August 11, 2014

  Actual Average Record
Temperature  
Mean Temperature 55 °F -  
Max Temperature 59 °F 62 °F 69 °F (2003)
Min Temperature 51 °F 50 °F 46 °F (2002)
Degree Days  
Heating Degree Days 10    
Growing Degree Days 5 (Base 50)    
Moisture  
Dew Point 52 °F    
Average Humidity 94    
Maximum Humidity 100    
Minimum Humidity 78    
Precipitation  
Precipitation 0.00 in - - ()
Sea Level Pressure  
Sea Level Pressure 29.97 in    
Wind  
Wind Speed 4 mph (NW)    
Max Wind Speed 9 mph    
Max Gust Speed -    
Visibility 3 miles    
Events Fog    
Averages and records for this station are not official NWS values.
T = Trace of Precipitation, MM = Missing Value Source: NWS Daily Summary

Daily Weather History Graph

Daily Weather History Graph

Search for Another Location

Airport or City:

Trip Planner

Search our weather history database for the weather conditions in past years. The results will help you decide how hot, cold, wet, or windy it might be!

Date:

Astronomy

Aug. 11, 2014 Rise Set
Actual Time 6:22 AM PDT 8:20 PM PDT
Civil Twilight 5:52 AM PDT 8:49 PM PDT
Nautical Twilight 5:15 AM PDT 9:26 PM PDT
Astronomical Twilight 4:36 AM PDT 10:05 PM PDT
Moon 8:51 PM PDT (8/11) 7:35 AM PDT (8/11)
Length of Visible Light 14h 57m
Length of Day
13h 57m
Full, 98% of the Moon is Illuminated
Aug 11
Full
Aug 17
Last Quarter
Aug 25
New
Sep 2
First Quarter
Sep 8
Full

Hourly Weather History & Observations

Time (PDT) Temp. Dew Point Humidity Pressure Visibility Wind Dir Wind Speed Gust Speed Precip Events Conditions
12:53 AM 53.1 °F 52.0 °F 96% 29.98 in 0.5 mi SSW 5.8 mph - N/A Fog Fog
1:53 AM 53.1 °F 52.0 °F 96% 29.98 in 0.8 mi SSW 5.8 mph - N/A   Mist
2:27 AM 52.0 °F 52.0 °F 100% 29.96 in 1.0 mi South 3.5 mph - N/A   Mist
2:53 AM 53.1 °F 52.0 °F 96% 29.97 in 1.2 mi Variable 3.5 mph - N/A   Overcast
3:10 AM 53.1 °F 52.0 °F 96% 29.96 in 2.5 mi Calm Calm - N/A   Overcast
3:30 AM 52.0 °F 52.0 °F 100% 29.95 in 1.2 mi Calm Calm - N/A   Overcast
3:53 AM 52.0 °F 52.0 °F 100% 29.96 in 2.0 mi Calm Calm - N/A   Overcast
4:05 AM 52.0 °F 52.0 °F 100% 29.95 in 1.0 mi Calm Calm - N/A   Mist
4:36 AM 52.0 °F 51.1 °F 97% 29.95 in 3.0 mi NW 4.6 mph - N/A   Overcast
4:53 AM 52.0 °F 51.1 °F 97% 29.96 in 7.0 mi NW 3.5 mph - N/A   Overcast
5:05 AM 52.0 °F 51.1 °F 97% 29.94 in 2.0 mi North 4.6 mph - N/A   Overcast
5:30 AM 52.0 °F 51.1 °F 97% 29.94 in 0.8 mi NW 5.8 mph - N/A   Overcast
5:49 AM 51.8 °F 51.8 °F 100% 29.94 in 1.2 mi WNW 3.5 mph - N/A   Overcast
5:53 AM 52.0 °F 51.1 °F 97% 29.96 in 0.8 mi NW 4.6 mph - N/A   Mist
6:31 AM 51.1 °F 51.1 °F 100% 29.95 in 1.0 mi Calm Calm - N/A   Mist
6:39 AM 51.1 °F 51.1 °F 100% 29.95 in 0.5 mi NW 3.5 mph - N/A Fog Fog
6:48 AM 51.8 °F 51.8 °F 100% 29.95 in 0.2 mi North 3.5 mph - N/A Fog Fog
6:53 AM 52.0 °F 51.1 °F 97% 29.97 in 0.2 mi NW 3.5 mph - N/A Fog Fog
7:45 AM 52.0 °F 51.1 °F 97% 29.95 in 1.0 mi NNW 5.8 mph - N/A   Overcast
7:53 AM 52.0 °F 52.0 °F 100% 29.97 in 1.0 mi Calm Calm - N/A   Overcast
8:01 AM 53.1 °F 52.0 °F 96% 29.95 in 0.5 mi Variable 3.5 mph - N/A Fog Fog
8:10 AM 52.0 °F 51.1 °F 97% 29.95 in 2.0 mi North 3.5 mph - N/A   Overcast
8:19 AM 53.1 °F 52.0 °F 96% 29.95 in 1.0 mi NNE 4.6 mph - N/A   Overcast
8:35 AM 53.1 °F 53.1 °F 100% 29.95 in 0.5 mi NNW 4.6 mph - N/A Fog Fog
8:43 AM 53.1 °F 52.0 °F 96% 29.95 in 0.2 mi NNW 5.8 mph - N/A Fog Fog
8:53 AM 53.1 °F 52.0 °F 96% 29.97 in 0.5 mi NW 5.8 mph - N/A Fog Fog
8:59 AM 53.1 °F 52.0 °F 96% 29.96 in 0.2 mi NW 6.9 mph - N/A Fog Fog
9:53 AM 52.0 °F 52.0 °F 100% 29.98 in 1.0 mi WNW 5.8 mph - N/A   Mist
10:19 AM 53.1 °F 53.1 °F 100% 29.97 in 0.5 mi NW 5.8 mph - N/A Fog Fog
10:29 AM 53.1 °F 52.0 °F 96% 29.97 in 0.5 mi NW 4.6 mph - N/A Fog Fog
10:46 AM 54.0 °F 53.1 °F 97% 29.97 in 2.5 mi NW 4.6 mph - N/A   Overcast
10:53 AM 54.0 °F 52.0 °F 93% 29.99 in 10.0 mi NW 6.9 mph - N/A   Overcast
11:53 AM 55.0 °F 51.1 °F 86% 30.01 in 6.0 mi Variable 5.8 mph - N/A   Overcast
12:14 PM 55.0 °F 51.1 °F 86% 29.98 in 2.5 mi WNW 6.9 mph - N/A   Overcast
12:21 PM 55.9 °F 52.0 °F 87% 29.99 in 6.0 mi Variable 5.8 mph - N/A   Overcast
12:53 PM 57.9 °F 52.0 °F 81% 30.00 in 10.0 mi Variable 4.6 mph - N/A   Overcast
1:01 PM 57.9 °F 52.0 °F 81% 29.98 in 10.0 mi NNW 5.8 mph - N/A   Overcast
1:26 PM 57.9 °F 52.0 °F 81% 29.98 in 10.0 mi WNW 6.9 mph - N/A   Overcast
1:53 PM 59.0 °F 52.0 °F 78% 29.99 in 10.0 mi NW 9.2 mph - N/A   Overcast
2:53 PM 55.9 °F 51.1 °F 84% 30.00 in 10.0 mi NW 3.5 mph - N/A   Overcast
3:19 PM 57.0 °F 52.0 °F 83% 29.98 in 10.0 mi Variable 5.8 mph - N/A   Overcast
3:53 PM 57.9 °F 52.0 °F 81% 29.98 in 10.0 mi Variable 6.9 mph - N/A   Overcast
4:53 PM 57.0 °F 52.0 °F 83% 29.98 in 10.0 mi WSW 6.9 mph - N/A   Overcast
5:53 PM 55.9 °F 52.0 °F 87% 29.97 in 10.0 mi SW 4.6 mph - N/A   Overcast
6:53 PM 55.9 °F 52.0 °F 87% 29.96 in 10.0 mi Calm Calm - N/A   Scattered Clouds
7:23 PM 54.0 °F 52.0 °F 93% 29.95 in 6.0 mi Calm Calm - N/A   Mostly Cloudy
7:35 PM 54.0 °F 52.0 °F 93% 29.95 in 1.5 mi West 4.6 mph - N/A   Overcast
7:53 PM 54.0 °F 52.0 °F 93% 29.96 in 0.2 mi Calm Calm - N/A Fog Fog
8:00 PM 54.0 °F 53.1 °F 97% 29.95 in 0.5 mi Calm Calm - N/A Fog Fog
8:13 PM 54.0 °F 52.0 °F 93% 29.95 in 0.2 mi Calm Calm - N/A Fog Fog
8:53 PM 53.1 °F 52.0 °F 96% 29.97 in 0.2 mi Calm Calm - N/A Fog Fog
9:53 PM 53.1 °F 52.0 °F 96% 29.99 in 0.2 mi Calm Calm - N/A Fog Fog
10:10 PM 53.1 °F 52.0 °F 96% 29.97 in 0.8 mi Calm Calm - N/A   Mist
10:35 PM 53.1 °F 53.1 °F 100% 29.96 in 1.0 mi Calm Calm - N/A   Mist
10:53 PM 53.1 °F 52.0 °F 96% 29.97 in 1.2 mi Calm Calm - N/A   Overcast
11:31 PM 52.0 °F 52.0 °F 100% 29.94 in 3.0 mi Calm Calm - N/A   Overcast
11:40 PM 52.0 °F 52.0 °F 100% 29.95 in 2.0 mi SW 3.5 mph - N/A   Overcast
11:53 PM 52.0 °F 52.0 °F 100% 29.97 in 1.2 mi Calm Calm - N/A   Overcast